Back to catalog

SL-6 R/B(2)

AliveHEO
NORAD 24296·ROCKET BODY·🇷🇺 Russia

Launched Aug 29, 1996 from Plesetsk Cosmodrome

Loading…

Next Passes (next 24 hours)

TLE

FreshSource: Space-Track

Epoch: Sep 10, 2026, 03:08 UTC

1 24296U 96050F   26253.13109683  .00000022  00000-0 -53241-3 0  9995
2 24296  62.6482 170.0306 5574380 264.0250  33.3013  4.15061742455187

Track SL-6 R/B(2) in real time with AllMySat

Download on the App Store